Probability
0 0 0 0 0 0 0 0 0 0 0 0 0 0 0 0 0 0 0 0 0 0 0 0 0 0 0 0 0 0 0 0 0 0 0 0 0 0 0 0 0 0 0
0 0 0 0 0 0 0 0 0 0 0 0 0 0 0 0 0 0 0 0 0 0 0 0 0 0 0 0 0 0 0 0 0 0 0 0 0 0 0 0 0 0 0
0 0 0 0 0 0 0 0 0 0 0 0 0 0 0 0 0 0 0 0 0 0 0 0 0 0 0 0 0 0 0 0 0 0 0 0 0 0 0 0 0 0 0
0 0 0 0 0 0 0 0 0 0 0 0 0 0 0 0 0 0 0 0 0 0 0 0 0 0 0 0 0 0 0 0 0 0 0 0 0 0 0 0 0 0 0
0 0 0 0 0 0 0 0 0 0 0 0 0 0 0 0 0 0 0 0 0 0 0 0 0 0 0 0 0 0 0 0 0 0 0 0 0 0 0 0 0 0 0
0 0 0 0 0 0 0 0 0 0 0 0 0 0 0 0 0 0 0 0 0 0 0 0 0 0 0 0 0 0 0 0 0 0 0 0 0 0 0 0 0 0 0
0 0 0 0 0 0 0 0 0 0 0 0 0 0 0 0 0 0 0 0 0 0 0 0 0 0 0 0 0 0 0 0 0 0 0 0 0 0 0 0 0 0 0
0 0 0 0 0 0 0 0 0 0 0 0 0 0 0 0 0 0 0 0 0 0 0 0 0 0 0 0 0 0 0 0 0 0 0 0 0 0 0 0 0 0 0
0 0 0 0 0 0 0 0 0 0 0 0 0 0 0 0 0 0 0 0 0 0 0 0 0 0 0 0 0 0 0 0 0 0 0 0 0 0 0 0 0 0 0
0 0 0 0 0 0 0 0 0 0 0 0 0 0 0 0 0 0 0 0 0 0 0 0 0 0 0 0 0 0 0 0 0 0 0 0 0 0 0 0 0 0 0
0 0 0 0 0 0 0 0 0 0 0 0 0 0 0 0 0 0 0 0 0 0 0 0 0 0 0 0 0 0 0 0 0 0 0 0 0 0 0 0 0 0 0
0 0 0 0 0 0 0 0 0 0 0 0 0 0 0 0 0 0 0 0 0 0 0 0 0 0 0 0 0 0 0 0 0 0 0 0 0 0 0 0 0 0 0
0 0 0 0 0 0 0 0 0 0 0 0 0 0 0 0 0 0 0 0 0 0 0 0 0 0 0 0 0 0 0 0 0 0 0 0 0 0 0 0 0 0 0
0 0 0 0 0 0 0 0 0 0 0 0 0 0 0 0 0 0 0 0 0 0 0 0 0 0 0 0 0 0 0 0 0 0 0 0 0 0 0 0 0 0 0
0 0 0 0 0 0 0 0 0 0 0 0 0 0 0 0 0 0 0 0 0 0 0 0 0 0 0 0 0 0 0 0 0 0 0 0 0 0 0 0 0 0 0
0 0 0 0 0 0 0 0 0 0 0 0 0 0 0 0 0 0 0 0 0 0 0 0 0 0 0 0 0 0 0 0 0 0 0 0 0 0 0 0 0 0 0
0 0 0 0 0 0 0 0 0 0 0 0 0 0 0 0 0 0 0 0 0 0 0 0 0 0 0 0 0 0 0 0 0 0 0 0 0 0 0 0 0 0 0
0 0 0 0 0 0 0 0 0 0 0 0 0 0 0 0 0 0 0 0 0 0 0 0 0 0 0 0 0 0 0 0 0 0 0 0 0 0 0 0 0 0 0
0 0 0 0 0 0 0 0 0 0 0 0 0 0 0 0 0 0 0 0 0 0 0 0 0 0 0 0 0 0 0 0 0 0 0 0 0 0 0 0 0 0 0
0 0 0 0 0 0 0 0 0 0 0 0 0 0 0 0 0 0 0 0 0 0 0 0 0 0 0 0 0 0 0 0 0 0 0 0 0 0 0 0 0 0 0
0 0 0 0 0 0 0 0 0 0 0 0 0 0 0 0 0 0 0 0 0 0 0 0 0 0 0 0 0 0 0 0 0 0 0 0 0 0 0 0 0 0 0
0 0 0 0 0 0 0 0 0 0 0 0 0 0 0 0 0 0 0 0 0 0 0 0 0 0 0 0 0 0 0 0 0 0 0 0 0 0 0 0 0 0 0
0 0 0 0 0 0 0 0 0 0 0 0 0 0 0 0 0 0 0 0 0 0 0 0 0 0 0 0 0 0 0 0 0 0 0 0 0 0 0 0 0 0 0
0 0 0 0 0 0 0 0 0 0 0 0 0 0 0 0 0 0 0 0 0 0 0 0 0 0 0 0 0 0 0 0 0 0 0 0 0 0 0 0 0 0 0
0 0 0 0 0 0 0 0 0 0 0 0 0 0 0 0 0 0 0 0 0 0 0 0 0 0 0 0 0 0 0 0 0 0 0 0 0 0 0 0 0 0 0
0 0 0 0 0 0 0 0 0 0 0 0 0 0 0 0 0 0 0 0 0 0 0 0 0 0 0 0 0 0 0 0 0 0 0 0 0 0 0 0 0 0 0
Wind_Speed
12 9 10 10 11 12 13 14 15 15 13 11 10 9 8 7 5 5 6 7 6 6 5 4 4 3 3 3 3 3 3 2 3 4 5 4 3 3 2 2 2 2 3
10 10 11 11 12 13 13 14 15 16 15 12 10 8 8 5 5 5 5 6 6 6 5 5 4 4 3 3 3 2 2 1 1 3 4 4 2 1 2 3 3 4 4
12 11 12 12 12 13 14 13 15 16 15 14 9 8 6 5 5 6 5 6 6 6 6 5 4 4 3 3 3 2 3 2 1 2 3 3 4 5 3 4 5 5 5
9 10 11 13 13 12 11 13 14 15 15 14 13 14 10 9 8 7 6 7 7 6 6 6 5 4 3 3 3 2 2 3 2 1 2 4 4 4 5 4 4 6 7
8 9 11 11 11 11 11 12 13 14 15 15 15 15 12 9 7 8 9 8 7 6 6 6 5 5 3 3 3 3 2 2 3 2 2 4 4 6 5 7 7 6 6
6 7 8 10 10 10 11 11 13 14 14 14 14 14 13 12 12 11 10 8 6 6 7 6 5 5 4 4 3 3 3 3 3 3 3 4 4 4 5 8 9 9 7
5 7 10 11 11 12 12 12 14 14 14 14 14 13 13 14 14 12 11 9 7 6 7 6 6 5 4 4 3 3 3 4 4 4 4 4 5 5 6 8 9 10 9
5 7 10 11 12 13 13 14 15 14 14 14 13 12 12 10 9 11 10 9 7 7 8 7 6 5 5 4 4 3 4 4 5 5 5 5 5 5 6 6 8 9 8
4 7 9 11 12 13 14 14 15 14 14 13 13 12 12 10 10 10 9 7 7 6 8 7 6 6 5 5 4 4 4 4 5 5 6 6 5 5 6 6 6 7 9
3 6 8 10 11 12 12 13 14 14 14 13 12 9 11 11 10 10 10 9 9 8 8 7 6 6 5 5 5 4 4 5 5 5 6 7 6 6 6 6 7 8 10
3 6 8 10 11 11 12 13 13 13 13 13 12 12 11 11 11 10 10 9 9 9 8 7 6 6 6 5 5 6 5 6 7 6 7 8 8 7 7 7 8 8 9
3 6 8 10 11 12 13 13 13 13 13 13 12 12 11 11 11 10 10 10 9 8 8 7 7 6 6 6 6 6 7 7 8 8 8 9 7 10 9 8 9 9 10
3 6 8 10 12 13 13 13 13 13 13 13 13 12 12 12 12 11 10 10 9 8 8 7 7 6 6 6 7 7 8 8 9 9 10 10 10 11 9 10 10 9 10
5 7 8 10 11 12 13 14 14 13 13 13 13 13 13 13 12 11 10 10 9 8 8 7 7 6 6 7 7 7 8 9 9 10 10 11 11 12 12 10 11 11 11
7 8 9 10 11 12 13 13 14 14 14 14 14 13 12 11 11 10 10 9 8 8 7 7 7 7 6 6 6 6 8 9 10 11 11 12 13 15 14 11 11 11 10
9 8 9 10 12 13 13 13 14 14 14 14 13 12 12 11 11 10 9 9 8 8 7 7 7 7 6 8 11 10 10 10 11 12 12 12 13 15 18 20 20 18 15
8 7 9 10 11 12 13 14 14 14 14 14 13 12 12 12 11 10 9 9 8 8 7 7 8 8 8 10 12 13 12 12 12 13 12 10 11 14 13 15 18 19 21
7 6 6 8 8 9 11 11 12 13 13 13 13 12 12 11 10 10 9 9 7 7 7 7 8 8 9 11 13 13 13 13 13 13 13 14 14 12 12 12 13 15 15
4 3 4 5 7 9 10 11 12 12 12 12 12 12 12 11 10 10 9 8 7 7 7 7 8 9 9 11 12 13 10 11 13 13 13 14 14 16 18 15 15 16 14
2 3 4 5 7 8 10 12 12 12 12 11 11 11 11 11 10 9 8 6 6 6 6 7 8 9 10 10 12 13 9 11 11 11 11 14 16 18 19 15 14 15 14
4 5 5 6 6 8 10 11 10 10 9 9 9 9 9 9 8 7 6 6 5 6 7 8 8 9 11 11 13 14 9 10 10 10 10 10 16 19 20 19 15 17 17
6 6 6 7 6 8 9 10 9 8 9 9 9 8 8 6 5 6 5 5 6 7 7 8 9 8 9 10 11 14 15 14 12 11 10 11 18 20 22 18 18 22 19
6 6 7 8 7 7 8 9 8 9 9 9 8 7 6 5 5 5 5 5 5 6 6 7 8 8 7 8 13 15 16 17 13 11 17 20 23 22 17 18 20 17 11
7 7 8 9 7 7 7 8 8 8 8 8 7 5 5 4 4 4 4 5 5 6 6 7 8 8 8 8 7 8 9 12 12 12 15 20 22 18 17 16 13 9 9
7 7 7 8 8 8 7 7 8 8 7 6 5 4 3 3 4 5 5 6 7 7 8 8 8 9 10 10 13 12 10 10 11 13 11 11 11 10 9 9 9 8 8
8 8 8 8 8 8 7 7 6 6 6 4 3 3 2 3 4 5 5 8 11 13 15 17 15 13 16 19 20 21 22 22 22 17 12 12 11 10 9 9 9 8 8
Wind_Direction
248 223 208 199 194 192 191 189 186 184 182 180 182 181 182 179 176 175 177 181 181 186 189 189 190 198 212 222 233 248 256 272 312 297 295 282 265 280 270 273 272 263 276
243 216 204 195 193 188 186 185 185 181 182 182 180 181 172 169 163 161 166 172 174 174 177 185 181 185 196 206 213 227 258 265 297 305 308 307 266 193 269 283 282 287 285
249 223 206 197 192 188 185 182 181 180 181 177 167 152 144 144 158 165 162 167 168 167 170 178 177 176 188 194 198 212 241 263 251 291 303 308 313 322 275 277 284 288 288
248 228 208 198 193 187 180 179 177 178 178 175 174 172 175 176 178 169 160 157 162 161 165 167 166 167 175 179 183 212 239 259 262 249 260 279 296 293 302 280 273 286 293
251 227 208 198 189 178 176 176 174 176 177 180 180 181 182 174 160 157 156 155 155 158 161 162 162 165 170 174 178 197 220 246 265 268 266 264 265 260 273 290 298 293 284
255 223 200 186 178 171 171 173 173 174 176 180 181 185 177 166 160 164 162 161 157 160 164 165 166 168 167 172 183 200 218 239 251 257 257 262 265 270 268 280 294 298 300
244 205 189 183 177 174 172 173 173 172 176 180 182 182 177 173 171 170 171 167 165 168 169 170 173 171 171 176 187 205 223 234 246 253 260 262 264 274 275 279 288 293 297
232 205 195 188 181 177 175 175 175 173 176 179 180 178 174 174 173 174 171 173 171 169 168 173 174 173 175 182 196 215 225 238 245 254 258 261 263 263 262 271 287 294 291
223 204 196 191 184 181 180 179 176 174 176 177 175 174 173 172 168 168 169 168 163 159 168 172 174 176 183 195 206 227 231 241 249 254 257 259 261 260 261 263 264 274 289
209 200 196 192 188 184 181 181 180 177 175 174 173 171 172 169 164 165 168 166 164 164 169 175 180 184 193 204 216 233 240 247 251 254 258 260 262 262 259 257 260 259 268
200 196 194 191 186 182 182 183 182 178 176 175 172 170 168 166 166 169 170 168 167 170 175 179 186 195 204 213 224 234 240 250 256 254 257 262 265 266 264 261 261 262 264
212 196 192 188 186 186 186 186 185 182 179 175 173 170 165 166 170 171 170 171 172 175 179 184 194 204 214 223 233 242 245 251 257 260 261 264 265 264 265 264 264 266 268
226 202 194 194 193 191 190 189 189 186 179 175 173 170 170 173 176 173 171 173 175 178 183 192 202 211 220 230 239 247 252 255 258 262 263 265 267 268 268 268 269 271 273
238 215 204 200 198 196 194 192 191 186 180 178 178 177 178 179 177 173 173 176 179 184 191 200 210 218 226 234 242 248 254 258 260 261 261 263 264 267 272 274 274 275 277
242 219 210 204 197 196 196 194 191 186 182 181 183 183 178 175 173 173 175 177 184 191 197 206 216 224 228 233 233 240 249 256 261 262 261 261 261 266 269 270 272 272 271
247 226 212 206 201 197 194 192 190 186 183 185 185 178 173 172 174 175 176 180 188 194 201 213 224 232 234 238 244 252 258 258 261 264 266 266 264 264 266 269 271 273 275
245 226 215 209 204 198 194 192 188 182 183 185 181 176 174 173 175 174 179 187 194 200 211 222 231 241 244 243 254 258 266 268 268 269 271 270 268 270 270 273 275 274 273
245 230 214 206 201 193 188 183 179 179 182 183 179 175 174 174 173 178 186 193 199 207 219 229 238 248 252 251 260 266 267 269 269 269 270 272 274 272 274 276 274 273 272
243 227 201 190 181 179 174 170 172 175 180 182 179 175 174 172 175 184 191 195 203 216 226 235 243 251 257 253 261 269 272 269 269 269 269 270 273 276 278 278 277 277 276
159 149 148 152 158 162 163 165 169 174 180 179 175 171 172 173 180 187 191 197 209 225 233 242 248 255 263 262 264 268 269 270 272 273 271 268 270 276 280 279 279 280 282
124 129 132 134 142 150 156 161 164 172 169 164 162 164 170 175 179 183 191 202 215 230 241 251 255 258 262 266 264 266 267 270 276 276 275 274 276 278 280 281 279 278 285
129 131 127 122 130 146 152 154 157 152 149 151 154 160 166 164 172 184 198 212 224 239 250 257 263 262 261 260 263 266 269 274 277 277 277 277 281 282 283 282 279 284 289
135 134 129 123 127 142 150 145 141 142 144 148 153 156 160 166 181 198 211 223 232 242 254 261 267 271 269 266 266 271 275 277 276 276 280 283 285 287 285 282 283 285 282
143 140 137 133 131 135 136 131 134 141 145 149 152 157 168 182 197 208 220 230 238 247 255 263 268 273 272 270 270 271 277 278 277 279 281 283 283 278 276 278 279 272 269
145 148 145 138 134 132 127 128 136 143 147 150 154 167 186 204 222 229 234 241 246 249 257 264 267 273 275 273 277 282 282 282 281 286 283 279 278 273 270 271 271 269 268
147 146 143 138 135 133 130 132 139 149 151 157 171 188 209 225 240 253 258 239 245 258 258 262 266 270 272 282 285 285 285 288 288 288 280 280 279 279 280 281 278 272 268